Regional Weather Roundup
Issued by NWS

Home | Current Version | Previous Version | Graphics & Text | Print | Product List | Glossary On
Versions: 1 2 3 4 5 6 7 8 9 10 11 12 13 14 15 16 17 18 19 20 21 22 23 24 25 26 27 28 29 30 31 32 33 34 35 36 37 38 39 40 41 42 43 44 45 46 47 48 49 50
000
ASUS45 KABQ 280801
RWRNM
NEW MEXICO REGIONAL WEATHER ROUNDUP
NATIONAL WEATHER SERVICE ALBUQUERQUE NM
200 AM MDT FRI AUG 28 2015

NOTE: "FAIR" MEANS FEW OR NO CLOUDS BELOW 12,000 FEET AGL WITH NO
       SIGNIFICANT WEATHER OR OBSTRUCTIONS TO VISION.

      THIS PRODUCT IS RELEASED AS TWO VERSIONS.  ONE VERSION NEAR
      THE TOP OF THE HOUR CONTAINING PRELIMINARY DATA FROM ALBUQUERQUE
      AND OTHER STATIONS.  A FINAL VERSION WITH ADDITIONAL DATA IS
      ISSUED ABOUT 10 MINUTES AFTER THE HOUR.

NMZ501-503-504-510>518-280900-
NORTHWEST PLATEAU/NORTHCENTRAL MOUNTAINS

CITY           SKY/WX    TMP DP  RH WIND       PRES   REMARKS
FARMINGTON     CLEAR     63  52  67 E3        30.20S
SANTA FE       CLEAR     62  50  64 N3        30.25S
TAOS           PTCLDY    54  41  62 N7        30.34S

$$
NMZ402-403-502-505>509-280900-
WESTCENTRAL MOUNTAINS/SOUTHWEST MOUNTAINS

CITY           SKY/WX    TMP DP  RH WIND       PRES   REMARKS
GALLUP         PTCLDY    61  55  81 CALM      30.31S
SILVER CITY      N/A     64  54  68 NW13      30.23S

$$
NMZ407-409-411-412-280900-
SOUTHERN DESERTS

CITY           SKY/WX    TMP DP  RH WIND       PRES   REMARKS
DEMING         MOCLDY    70  57  63 S6        30.13S
HOLLOMAN AFB   CLEAR     73  58  59 E7        30.07F
ALAMOGORDO     PTCLDY    73  54  49 E8        30.09F
T OR C         PTCLDY    73  56  54 N5        30.15F

$$
NMZ519>523-280900-
CENTRAL VALLEYS/CENTRAL HIGHLANDS

CITY           SKY/WX    TMP DP  RH WIND       PRES   REMARKS
ALBUQUERQUE    MOCLDY    69  54  58 SE8       30.21R
DOUBLE EAGLE   PTCLDY    62  56  80 W7        30.24S
CLINES CORNERS PTCLDY    58  50  75 NW12      30.27F
BELEN          FAIR      63  57  80 CALM      30.20S
SOCORRO        NOT AVBL

$$
NMZ524>526-539-540-280900-
SOUTHCENTRAL MOUNTAINS

CITY           SKY/WX    TMP DP  RH WIND       PRES   REMARKS
RUIDOSO        NOT AVBL

$$
NMZ527>531-280900-
NORTHEAST HIGHLANDS/NORTHEAST PLAINS

CITY           SKY/WX    TMP DP  RH WIND       PRES   REMARKS
LAS VEGAS      PTCLDY    60  50  69 N10       30.28S
RATON          PTCLDY    61  52  72 N10       30.23F
CLAYTON        MOCLDY    67  58  72 NW9       30.12F

$$
NMZ532>537-280900-
EASTCENTRAL PLAINS

CITY           SKY/WX    TMP DP  RH WIND       PRES   REMARKS
TUCUMCARI      CLOUDY    74  55  51 NW9G24    30.05R
CANNON AFB     MOCLDY    70  58  66 SW7       30.09F
CLOVIS AIRPORT MOCLDY    70  57  64 SW9       30.10S

$$
NMZ028-029-538-280900-
SOUTHEAST PLAINS

CITY           SKY/WX    TMP DP  RH WIND       PRES   REMARKS
ROSWELL        PTCLDY    70  55  59 SW5       30.05F
ARTESIA        PTCLDY    73  54  49 SW7       30.05F
CARLSBAD       CLEAR     77  51  40 S9        30.02


$$


USA.gov is the U.S. government's official web portal to all federal, state and local government web resources and services.